Temperature
5 4 4 4 4 4 4 4 4 4 4 4 4 4 5 5 5 5 5 5 5 4 4 4 4 4 4 4 3 3 3 2 2 2 3 3 3 3 3 3 3 3 3
4 4 4 4 4 4 4 3 3 3 4 4 4 4 4 4 4 4 4 4 4 4 4 4 4 3 3 3 3 3 2 2 2 2 2 2 2 2 2 2 2 2 2
4 4 3 3 3 3 3 3 3 3 3 3 3 3 3 3 4 4 4 4 4 4 4 3 3 3 3 2 2 2 2 2 2 2 2 2 2 2 2 2 2 2 2
3 3 3 3 3 3 3 2 2 3 3 3 3 3 3 3 3 3 3 3 3 3 3 3 3 2 2 2 2 2 2 2 2 1 1 1 1 1 1 1 1 2 1
2 2 2 2 2 2 2 2 2 2 2 2 2 2 2 2 2 2 2 2 2 2 2 2 2 2 2 2 2 2 2 1 1 1 1 1 1 1 1 1 0 1 1
2 2 2 2 1 1 1 1 1 2 2 2 2 2 2 2 2 2 2 2 2 2 2 2 2 2 2 2 1 1 1 1 1 1 0 0 0 0 0 0 -0 -0 -0
1 1 1 1 1 1 1 1 1 1 1 1 1 1 1 1 1 1 1 1 1 1 1 1 1 1 1 1 1 1 1 0 0 0 -0 -0 -0 -0 -0 -0 -0 -0 -0
-0 -0 0 0 -0 -0 -0 0 0 -0 0 0 0 0 1 1 1 1 1 1 1 1 1 1 1 1 0 0 0 0 0 0 -0 -0 -0 -0 -1 -1 -1 -1 -1 -1 -0
-1 -1 -1 -1 -1 -1 -1 -1 -1 -1 -1 -1 -0 -0 -0 0 -0 -0 0 0 0 0 0 0 0 0 -0 -0 -0 -0 -0 -0 -0 -1 -1 -1 -1 -1 -1 -1 -1 -1 -1
-1 -1 -1 -1 -1 -1 -1 -2 -1 -1 -1 -1 -1 -1 -1 -1 -1 -1 -1 -0 -0 -0 -0 -0 -0 -0 -0 -1 -1 -1 -1 -1 -1 -1 -1 -1 -1 -1 -1 -1 -1 -2 -2
-2 -2 -2 -2 -2 -2 -2 -2 -2 -2 -2 -2 -2 -1 -1 -1 -1 -1 -1 -1 -1 -1 -1 -1 -1 -1 -1 -1 -1 -1 -1 -1 -1 -1 -1 -1 -1 -1 -1 -1 -2 -2 -2
-2 -2 -2 -2 -2 -2 -2 -2 -2 -2 -2 -2 -2 -2 -2 -2 -2 -2 -1 -1 -1 -1 -1 -1 -1 -1 -1 -1 -1 -1 -2 -2 -2 -2 -1 -1 -1 -1 -1 -2 -2 -2 -2
-3 -3 -3 -3 -3 -3 -3 -3 -3 -3 -2 -3 -3 -3 -3 -2 -2 -2 -2 -2 -2 -1 -1 -2 -2 -2 -2 -2 -2 -2 -2 -2 -2 -2 -2 -2 -2 -2 -2 -2 -2 -2 -2
-3 -3 -3 -3 -3 -3 -3 -3 -3 -3 -3 -3 -3 -3 -3 -3 -2 -2 -2 -2 -2 -2 -2 -2 -2 -2 -2 -2 -2 -2 -2 -2 -2 -2 -2 -2 -2 -2 -2 -2 -2 -2 -2
-4 -4 -4 -4 -4 -4 -4 -4 -4 -4 -4 -3 -3 -3 -3 -3 -3 -3 -3 -3 -3 -3 -3 -3 -3 -3 -3 -3 -3 -3 -3 -3 -3 -3 -3 -3 -3 -3 -3 -3 -2 -2 -2
-4 -4 -4 -4 -4 -4 -4 -4 -4 -4 -4 -4 -4 -4 -3 -3 -3 -3 -3 -3 -3 -3 -3 -3 -3 -3 -4 -4 -4 -3 -3 -3 -3 -3 -3 -3 -3 -3 -3 -3 -3 -3 -3
-4 -4 -5 -5 -5 -5 -5 -4 -4 -4 -4 -4 -4 -4 -4 -4 -4 -4 -3 -3 -3 -4 -4 -4 -4 -4 -4 -4 -4 -4 -4 -4 -4 -4 -4 -4 -3 -3 -3 -3 -3 -3 -3
-5 -5 -5 -5 -5 -5 -5 -5 -5 -5 -5 -5 -4 -4 -4 -4 -4 -4 -4 -4 -4 -4 -4 -4 -4 -4 -4 -4 -4 -4 -4 -4 -4 -4 -4 -4 -4 -4 -3 -3 -3 -3 -3
-5 -5 -5 -5 -5 -5 -5 -5 -5 -5 -5 -5 -5 -5 -4 -4 -4 -4 -4 -4 -4 -4 -4 -4 -4 -5 -5 -5 -5 -5 -4 -4 -4 -4 -4 -4 -4 -4 -4 -4 -4 -4 -4
-5 -5 -5 -5 -5 -5 -5 -5 -6 -6 -6 -5 -5 -5 -5 -5 -5 -5 -5 -5 -5 -5 -5 -5 -5 -5 -5 -5 -5 -5 -5 -5 -5 -5 -4 -4 -4 -4 -4 -4 -4 -4 -4
-5 -5 -5 -5 -5 -5 -6 -6 -6 -6 -6 -6 -6 -5 -5 -5 -5 -5 -5 -5 -5 -5 -5 -5 -5 -5 -5 -5 -5 -5 -5 -5 -5 -5 -5 -5 -4 -4 -4 -4 -4 -4 -4
-6 -6 -6 -6 -6 -6 -6 -6 -6 -6 -6 -6 -6 -6 -6 -5 -5 -5 -5 -5 -5 -5 -5 -5 -5 -5 -5 -5 -5 -5 -5 -5 -5 -5 -5 -5 -5 -4 -4 -4 -4 -4 -4
-6 -6 -6 -6 -6 -6 -6 -6 -6 -6 -6 -6 -6 -6 -6 -6 -6 -6 -6 -6 -6 -6 -6 -6 -6 -6 -6 -5 -6 -5 -5 -5 -5 -5 -5 -5 -5 -5 -4 -4 -4 -4 -4
-6 -6 -6 -6 -6 -6 -6 -7 -7 -7 -7 -6 -6 -6 -6 -6 -6 -6 -6 -6 -6 -6 -6 -6 -6 -6 -6 -6 -6 -6 -6 -5 -5 -5 -5 -5 -5 -5 -5 -4 -4 -4 -4
-6 -6 -7 -7 -7 -7 -7 -7 -7 -7 -7 -7 -7 -7 -7 -6 -6 -6 -6 -6 -6 -6 -6 -6 -6 -6 -6 -6 -6 -6 -5 -5 -5 -5 -5 -5 -5 -5 -5 -5 -5 -5 -4
-7 -7 -7 -7 -7 -7 -7 -7 -7 -7 -7 -7 -7 -7 -7 -7 -7 -7 -6 -6 -6 -6 -6 -6 -6 -6 -6 -6 -6 -6 -5 -5 -5 -5 -5 -5 -5 -5 -5 -5 -5 -5 -5
Wind_Speed
2 2 2 2 2 2 3 4 4 4 4 4 4 4 4 4 4 3 3 3 3 4 4 4 4 3 3 3 3 3 3 3 5 5 4 4 4 5 6 6 6 6 7
1 1 1 1 1 2 3 3 3 3 4 4 4 4 4 3 4 4 4 3 3 4 4 4 4 3 3 3 3 3 3 3 4 7 5 4 4 4 5 6 5 6 7
1 0 0 0 1 2 2 2 2 2 3 3 3 4 3 3 4 3 4 4 3 3 3 4 4 4 4 3 4 4 3 3 3 5 5 4 4 3 4 5 5 5 6
2 0 0 1 1 1 1 1 2 2 2 2 2 2 2 2 3 2 2 2 2 2 2 3 4 4 5 4 3 4 3 3 3 4 5 4 3 3 3 4 5 4 5
1 1 1 1 1 1 1 1 0 0 1 1 1 1 1 2 2 2 2 2 2 2 2 2 3 4 5 4 4 3 3 3 3 3 4 4 3 3 3 3 5 6 6
1 1 1 1 2 1 1 1 1 1 1 1 0 0 1 2 2 2 2 2 3 3 3 2 2 3 4 4 5 5 4 4 4 4 4 5 5 4 4 4 4 5 5
2 2 2 2 1 1 1 2 1 0 0 1 1 1 1 2 2 2 1 1 2 2 3 2 2 2 2 1 2 3 3 4 4 3 4 5 5 5 5 5 5 5 5
2 2 2 2 1 1 1 1 1 1 0 1 2 2 2 2 2 2 1 1 1 2 2 3 3 3 2 2 2 2 2 2 3 3 4 5 5 5 5 5 5 5 5
2 2 2 1 1 1 1 1 1 1 1 1 1 1 1 2 2 2 1 1 1 1 2 2 3 3 3 2 2 2 2 3 3 4 5 5 6 5 4 2 2 2 4
2 2 2 1 1 1 1 1 1 1 1 1 2 2 2 2 3 2 2 1 1 2 2 2 2 2 2 1 1 2 3 3 3 3 4 4 4 4 4 2 2 2 2
2 2 2 2 1 1 1 1 1 1 1 1 2 2 2 2 3 2 2 1 2 2 2 2 2 2 1 2 1 2 3 3 2 2 2 2 3 2 2 2 2 2 2
3 3 3 3 2 2 1 1 1 0 1 1 1 2 2 3 2 2 2 1 1 2 2 2 2 1 1 1 1 1 2 2 1 1 1 2 2 2 3 3 3 3 3
3 3 3 3 3 2 1 1 1 1 1 1 1 2 3 2 2 3 2 2 2 1 1 1 0 1 1 1 1 2 1 1 1 1 2 2 2 2 2 2 3 3 4
3 3 3 3 3 3 2 1 1 1 2 2 2 2 2 2 2 2 2 1 1 0 0 1 2 2 2 2 2 2 1 1 1 1 2 2 2 2 2 2 2 3 3
2 3 3 3 3 3 2 2 2 2 2 2 2 2 2 2 2 2 1 1 1 1 1 1 1 1 1 1 1 1 1 2 2 2 1 2 2 2 2 2 2 2 2
2 3 3 2 2 2 2 2 3 3 4 3 3 3 2 3 3 2 1 1 1 2 2 1 1 1 0 1 1 1 1 2 2 2 2 2 2 2 2 2 2 2 2
2 3 3 2 2 2 2 2 3 4 5 4 4 4 3 3 3 2 2 2 2 3 1 1 0 0 0 0 0 1 1 2 2 2 2 2 2 2 2 2 2 2 3
2 3 3 2 2 2 2 1 2 2 3 3 4 5 4 3 3 3 2 2 1 1 1 1 0 0 0 0 1 1 1 1 2 2 2 2 2 2 2 2 2 2 3
2 2 2 2 2 2 1 1 1 2 2 2 3 3 4 4 4 4 3 2 1 1 0 0 0 0 1 1 1 1 1 1 1 2 2 2 2 2 2 2 2 3 2
2 3 3 2 2 1 1 1 1 2 2 2 2 2 2 2 1 2 2 1 1 0 0 0 0 0 1 1 1 1 1 1 1 2 2 2 2 2 2 2 2 2 2
2 3 4 3 2 1 1 1 1 1 2 2 2 2 3 1 1 1 1 1 0 1 1 1 0 0 1 1 1 1 1 1 1 1 2 2 2 2 2 1 2 2 2
2 2 2 2 2 1 1 1 1 1 1 2 2 2 3 2 1 1 1 1 1 1 1 1 1 1 1 1 1 1 1 1 2 2 2 2 2 2 1 1 1 2 2
2 2 1 2 2 2 2 1 1 1 1 1 1 2 2 1 1 1 1 1 1 1 0 0 0 1 1 1 1 2 2 2 2 2 2 2 2 1 1 1 1 1 2
1 1 1 1 2 1 1 1 1 1 1 1 1 1 1 1 1 2 1 1 1 1 1 0 0 1 1 1 2 2 2 2 2 2 2 1 1 1 1 1 1 1 1
1 1 1 1 1 1 1 1 1 1 1 1 1 1 1 1 1 1 1 1 1 1 1 1 1 1 1 2 2 3 3 3 2 1 1 1 0 0 0 1 1 1 1
1 1 1 1 1 1 1 1 1 1 1 1 1 1 1 1 1 1 1 1 1 1 1 1 1 1 2 2 2 3 2 2 1 0 1 1 1 0 0 0 1 1 1
Wind_Direction
247 237 228 235 235 230 221 218 216 214 204 207 215 216 215 214 212 211 218 216 217 222 215 205 208 207 208 208 209 211 226 228 255 278 279 286 293 303 312 309 302 300 301
253 228 223 241 228 213 217 221 212 212 210 204 211 216 215 214 212 208 218 224 222 220 214 201 206 206 214 210 208 213 225 229 241 268 284 288 285 290 301 299 310 304 302
303 241 209 237 206 201 206 208 201 210 218 211 210 219 221 218 218 219 216 222 229 227 217 209 209 203 226 230 217 220 228 240 244 257 276 284 287 298 306 304 303 305 308
338 34 274 283 217 187 192 193 213 217 218 218 219 218 217 217 216 213 210 205 210 221 218 212 208 207 218 225 231 228 230 240 248 257 272 286 288 295 301 306 309 308 306
2 24 337 358 35 90 105 113 106 349 282 220 221 234 229 236 226 211 200 202 202 220 228 220 215 217 220 227 236 232 226 238 253 264 274 285 290 303 296 299 300 306 302
32 3 15 49 53 81 93 83 70 42 0 6 312 245 264 270 266 264 231 206 209 218 231 233 226 231 235 242 258 261 251 243 249 257 271 275 280 277 282 292 300 307 299
35 17 27 54 56 44 79 71 50 37 43 347 317 300 290 286 291 284 273 244 219 216 222 227 236 240 260 242 269 286 289 283 268 254 260 267 270 266 275 280 279 286 281
37 28 29 45 41 37 66 64 14 341 352 320 309 307 315 318 329 328 318 263 231 233 229 229 227 235 244 238 251 266 276 287 284 272 249 260 265 262 256 267 270 291 293
35 19 7 15 21 27 33 29 354 19 346 333 318 309 305 314 325 310 301 240 243 269 256 234 232 229 238 251 249 259 284 295 307 298 295 293 292 291 289 286 289 295 300
7 355 351 10 22 7 345 335 346 357 324 332 320 307 286 292 307 302 282 221 225 250 262 248 240 239 240 260 233 246 266 281 295 314 321 321 318 309 312 281 255 262 289
350 360 3 0 354 343 3 349 345 342 348 329 313 310 298 291 299 297 281 238 223 232 243 253 244 247 258 272 264 256 276 296 284 289 300 314 325 327 332 334 302 250 260
4 7 360 353 349 5 27 356 339 326 337 326 327 324 314 297 300 296 297 284 266 230 237 246 238 241 250 278 292 304 319 327 300 289 299 314 320 322 325 328 315 295 271
14 5 358 355 354 355 3 342 337 338 323 308 307 306 311 312 309 317 316 313 307 280 229 216 167 110 55 345 349 354 360 338 291 289 290 296 299 299 316 327 329 325 318
16 359 353 353 351 349 344 339 337 321 301 291 293 298 302 308 310 302 288 276 281 295 34 75 75 72 55 28 13 359 357 348 315 290 300 307 322 331 329 330 335 348 350
4 352 349 349 343 342 343 330 312 292 279 288 281 274 283 291 295 297 277 231 187 168 122 79 50 42 37 29 22 23 21 15 5 340 332 337 339 341 333 333 336 345 344
354 346 343 337 332 329 328 340 346 331 337 334 324 309 300 304 313 320 351 62 108 119 103 96 68 33 29 14 14 11 10 360 345 340 336 337 336 334 334 340 344 344 342
333 322 321 322 319 316 318 329 335 346 357 355 345 340 336 338 351 6 24 63 95 116 104 119 144 58 349 16 359 335 331 327 328 334 336 332 328 328 332 339 345 349 343
322 317 319 311 308 308 309 313 316 322 330 335 340 352 2 11 24 31 40 62 69 97 106 134 143 180 298 298 311 325 331 334 335 332 331 330 327 322 332 341 345 344 337
316 314 316 310 307 309 313 316 319 316 317 324 337 351 13 23 31 38 50 53 71 70 81 108 102 270 293 297 300 309 303 308 320 319 322 325 323 326 333 337 340 341 339
314 316 321 315 313 320 328 334 327 327 330 336 339 338 347 12 22 24 35 41 46 4 312 309 324 307 290 292 298 299 300 305 313 311 317 323 321 323 328 334 335 336 334
316 317 327 330 321 327 331 322 316 326 328 331 330 338 359 4 2 7 1 341 303 286 287 292 290 276 274 285 288 291 290 295 299 302 312 318 318 319 325 330 329 331 334
312 311 318 320 314 318 321 325 337 331 326 329 330 336 355 10 4 341 318 305 290 268 245 240 253 257 249 243 257 264 270 282 293 300 308 311 315 318 321 327 334 339 342
313 315 326 331 328 319 334 349 346 336 333 334 329 334 339 341 329 317 310 312 317 312 320 264 248 275 297 269 259 251 249 255 265 270 279 294 304 311 314 326 335 339 340
313 321 329 332 333 330 348 348 338 329 327 333 331 323 322 322 320 322 324 334 340 347 354 352 273 274 294 298 286 281 276 275 276 263 255 266 290 310 321 345 347 337 328
326 328 332 330 335 339 338 330 324 321 324 327 329 328 328 327 324 328 345 352 353 3 9 10 355 307 294 294 293 294 298 297 297 303 267 214 230 274 346 9 2 355 357
326 323 323 330 331 328 319 308 307 312 316 318 320 318 319 322 323 332 344 354 360 7 6 1 357 340 319 306 304 313 313 314 330 79 98 122 129 120 90 57 33 30 32
Height
1448 1448 1448 1448 1449 1450 1451 1451 1452 1453 1453 1454 1455 1456 1457 1458 1458 1459 1458 1459 1458 1458 1458 1458 1458 1459 1460 1460 1460 1460 1460 1459 1457 1455 1455 1454 1453 1451 1449 1448 1446 1444 1441
1445 1445 1445 1445 1445 1446 1446 1447 1448 1449 1450 1451 1451 1452 1453 1453 1454 1454 1454 1454 1454 1454 1454 1454 1455 1455 1455 1456 1456 1456 1455 1455 1454 1452 1450 1450 1449 1447 1445 1443 1441 1439 1437
1442 1442 1442 1442 1442 1442 1443 1444 1445 1445 1446 1447 1448 1448 1449 1449 1450 1450 1450 1450 1450 1450 1450 1450 1451 1451 1451 1452 1452 1451 1451 1451 1450 1449 1446 1445 1444 1443 1441 1439 1437 1435 1433
1439 1439 1439 1439 1439 1439 1440 1440 1441 1442 1442 1443 1444 1444 1445 1445 1445 1445 1446 1446 1446 1446 1447 1447 1447 1447 1447 1447 1448 1447 1447 1446 1446 1444 1443 1441 1440 1438 1437 1435 1432 1430 1428
1437 1437 1437 1437 1437 1437 1437 1437 1438 1438 1438 1439 1440 1440 1441 1441 1441 1442 1442 1442 1442 1442 1442 1443 1443 1443 1443 1444 1444 1443 1443 1442 1441 1440 1439 1437 1436 1434 1433 1431 1428 1426 1424
1434 1434 1434 1434 1434 1434 1434 1434 1434 1435 1435 1436 1436 1437 1437 1437 1438 1438 1438 1438 1438 1438 1438 1439 1439 1439 1440 1440 1440 1439 1439 1439 1437 1436 1435 1434 1432 1431 1429 1427 1425 1423 1420
1432 1432 1433 1432 1432 1432 1432 1432 1432 1432 1432 1433 1433 1434 1434 1434 1434 1434 1434 1435 1434 1434 1435 1435 1435 1436 1436 1436 1436 1435 1435 1435 1434 1433 1431 1430 1428 1427 1426 1424 1422 1420 1417
1431 1431 1431 1430 1430 1430 1429 1429 1429 1429 1430 1430 1430 1431 1431 1431 1431 1431 1431 1431 1431 1431 1431 1432 1432 1432 1433 1433 1432 1432 1431 1430 1430 1429 1428 1426 1425 1424 1422 1421 1419 1416 1414
1429 1430 1430 1429 1428 1427 1427 1427 1428 1427 1427 1427 1428 1428 1428 1428 1428 1428 1428 1428 1427 1427 1428 1428 1429 1429 1429 1429 1429 1428 1427 1426 1426 1425 1424 1423 1421 1420 1418 1417 1415 1412 1410
1429 1429 1429 1428 1427 1426 1425 1425 1425 1425 1425 1425 1425 1426 1426 1425 1425 1425 1425 1425 1424 1424 1425 1425 1425 1425 1426 1426 1426 1425 1424 1423 1422 1421 1420 1419 1418 1416 1415 1413 1412 1410 1408
1428 1428 1427 1426 1425 1425 1424 1424 1424 1423 1423 1423 1423 1423 1423 1422 1422 1422 1422 1422 1422 1421 1421 1422 1422 1422 1422 1423 1423 1422 1422 1421 1419 1418 1417 1416 1415 1414 1412 1410 1409 1408 1406
1427 1426 1426 1425 1424 1423 1422 1422 1422 1421 1421 1421 1420 1420 1420 1420 1420 1419 1419 1419 1419 1418 1418 1419 1419 1419 1419 1420 1419 1420 1419 1418 1417 1416 1415 1413 1412 1411 1409 1408 1407 1406 1405
1426 1425 1424 1423 1422 1421 1421 1420 1420 1419 1419 1418 1418 1418 1418 1417 1417 1417 1416 1416 1416 1416 1416 1416 1416 1416 1417 1417 1417 1417 1416 1415 1414 1413 1412 1411 1410 1409 1408 1406 1405 1403 1402
1426 1424 1423 1422 1420 1420 1419 1418 1418 1417 1417 1417 1416 1416 1415 1415 1414 1414 1414 1414 1414 1414 1414 1414 1414 1414 1414 1414 1414 1414 1413 1413 1412 1411 1410 1409 1408 1407 1406 1405 1403 1401 1400
1424 1423 1421 1420 1419 1418 1417 1417 1417 1416 1416 1415 1415 1414 1413 1412 1413 1413 1412 1412 1412 1412 1412 1412 1411 1411 1411 1412 1411 1411 1411 1411 1410 1409 1408 1407 1407 1406 1405 1404 1402 1401 1399
1423 1421 1420 1419 1417 1416 1415 1415 1415 1414 1414 1413 1413 1413 1412 1412 1411 1411 1411 1411 1411 1411 1410 1409 1409 1409 1410 1410 1410 1409 1409 1409 1409 1408 1407 1406 1405 1405 1404 1403 1401 1400 1398
1422 1420 1419 1417 1416 1415 1414 1412 1412 1412 1412 1411 1411 1411 1410 1410 1409 1409 1409 1409 1408 1409 1408 1408 1408 1408 1409 1409 1409 1408 1408 1408 1407 1407 1406 1405 1405 1404 1403 1402 1401 1399 1398
1421 1419 1418 1416 1415 1413 1412 1411 1410 1410 1409 1409 1409 1409 1408 1408 1408 1407 1407 1407 1407 1407 1407 1407 1407 1407 1408 1408 1408 1408 1407 1407 1406 1406 1405 1405 1404 1403 1402 1401 1400 1399 1397
1420 1418 1416 1415 1413 1412 1411 1410 1409 1409 1408 1407 1407 1407 1407 1407 1406 1406 1406 1406 1405 1406 1406 1406 1406 1406 1407 1407 1407 1407 1406 1406 1405 1405 1405 1404 1404 1402 1401 1400 1399 1398 1397
1418 1416 1415 1413 1412 1410 1410 1409 1408 1408 1407 1407 1406 1406 1406 1406 1405 1405 1405 1405 1405 1405 1405 1405 1405 1405 1406 1406 1406 1406 1405 1405 1404 1404 1404 1403 1403 1402 1401 1400 1399 1398 1397
1416 1415 1413 1412 1411 1410 1409 1408 1408 1407 1407 1406 1406 1406 1406 1405 1405 1405 1405 1404 1404 1404 1404 1404 1404 1404 1405 1405 1405 1405 1404 1404 1403 1403 1402 1402 1402 1401 1400 1400 1399 1398 1397
1415 1414 1412 1411 1410 1409 1408 1408 1407 1406 1406 1405 1405 1405 1405 1404 1404 1404 1404 1403 1403 1403 1403 1403 1403 1403 1403 1403 1403 1403 1403 1402 1402 1402 1401 1401 1401 1401 1400 1400 1399 1398 1397
1414 1413 1411 1410 1409 1408 1407 1407 1406 1406 1405 1405 1404 1404 1403 1403 1403 1403 1403 1402 1402 1402 1402 1401 1401 1401 1402 1402 1402 1402 1402 1401 1401 1401 1400 1400 1400 1400 1400 1399 1399 1398 1397
1413 1412 1410 1409 1408 1407 1407 1406 1405 1405 1404 1404 1403 1403 1402 1402 1402 1402 1401 1401 1401 1401 1401 1400 1400 1400 1400 1401 1401 1401 1401 1401 1400 1400 1400 1399 1399 1399 1399 1399 1398 1398 1397
1412 1411 1409 1408 1407 1406 1406 1405 1404 1404 1403 1403 1402 1402 1401 1401 1401 1400 1400 1400 1400 1399 1399 1399 1399 1399 1399 1399 1399 1400 1400 1400 1399 1399 1399 1399 1398 1398 1399 1398 1398 1398 1398
1411 1410 1408 1407 1406 1405 1405 1404 1403 1403 1402 1402 1401 1401 1401 1400 1400 1399 1399 1399 1399 1398 1398 1398 1398 1398 1398 1398 1398 1398 1398 1398 1398 1398 1398 1398 1398 1398 1398 1398 1398 1398 1398